Location: Springfield
(37.2150°N, 93.2980°W)
Time: 23:25:07
(UTC-06:00)

Daily predictions for brighter satellites

Satellite Brightness Start Highest point End
(mag) Time Altitude Azimuth Time Altitude Azimuth Time Altitude Azimuth
Cosmos 2322 4.4 18:18:18 10° N 18:23:27 33° ENE 18:28:33 10° SE
Okean 2 Rocket 4.3 18:20:23 10° SSW 18:24:41 49° W 18:28:59 10° N
Cosmos 2181 Rocket 4.5 18:21:01 10° N 18:26:51 39° ENE 18:32:44 10° SE
METEOR-M 4.4 18:22:54 10° SE 18:27:58 47° ENE 18:33:05 10° N
Gbstr 26 Del rocket 2.6 18:24:27 10° SW 18:28:25 76° SE 18:32:08 10° NE
Cosmos 407 Rocket 4.0 18:23:17 10° SSW 18:28:28 66° WNW 18:33:46 10° NNE
Cosmos 1633 3.1 18:25:14 10° SSE 18:28:39 38° E 18:32:05 10° NNE
Cosmos 1818 4.3 18:28:24 10° SW 18:33:44 57° WNW 18:39:07 10° NNE
Cosmos 676 Rocket 4.1 18:29:08 10° SSW 18:34:18 85° WNW 18:39:33 10° NNE
ALOS 3.2 18:30:58 10° SE 18:34:51 27° ENE 18:38:44 10° NNE
Cosmos 1709 Rocket 4.0 18:30:48 10° S 18:36:57 66° E 18:43:04 10° NNE
ASTRO F (AKARI) 4.4 18:34:42 10° NNE 18:38:13 88° ESE 18:41:33 10° SSW
Abrixas rocket 2.9 18:35:09 10° SSW 18:38:17 38° SE 18:41:21 10° ENE
H-2A R/B 4.4 18:36:31 10° ESE 18:38:39 15° ENE 18:40:46 10° NNE
COSMOS 2428 3.8 18:35:14 10° N 18:39:49 24° ENE 18:44:22 10° ESE
Meteor 1-13 Rocket 4.4 18:35:08 10° N 18:40:33 50° ENE 18:46:01 10° SSE
Okean 1 Rocket 3.6 18:37:58 10° SSE 18:42:07 38° E 18:46:17 10° NNE
Cosmos 2151 Rocket 4.1 18:39:34 10° SSW 18:44:03 67° W 18:48:34 10° N
Cosmos 1812 4.0 18:40:24 10° NNW 18:44:06 46° W 18:47:46 10° SSW
Meteor 2-4 Rocket 4.3 18:39:18 10° NNE 18:44:12 32° ENE 18:48:59 10° SE
FREGAT/IRIS 3.0 18:41:40 10° SSE 18:44:34 41° ENE 18:47:31 10° N
Cosmos 1140 Rocket 3.4 18:40:04 10° S 18:45:09 72° ESE 18:50:18 10° NNE
Cosmos 1536 3.5 18:42:30 10° SSE 18:46:03 31° E 18:49:36 10° NNE
Cosmos 614 Rocket 3.9 18:45:39 10° S 18:50:37 59° ESE 18:55:37 10° NNE
ATLAS CENTAUR R/B 3.2 18:47:26 10° S 18:51:16 18° SE 18:52:48 14° ESE
Okean 1 3.9 18:48:12 10° NNW 18:52:13 63° W 18:56:14 10° S
Tiangong 2 2.6 18:52:35 10° W 18:55:23 32° SSW 18:58:09 10° SSE
Cosmos 2360 Rocket 2.1 18:50:01 10° NNW 18:55:40 71° ENE 19:01:19 10° SSE
CZ-3C R/B 3.7 18:49:49 10° WSW 18:56:18 16° SSW 18:59:28 10° SSE
Cosmos 2219 Rocket 3.6 18:52:33 10° N 18:56:24 19° NE 18:58:30 15° E
Cosmos 2219 3.4 18:51:38 10° S 18:57:07 48° ESE 19:02:37 10° NNE
DELTA 2 R/B (1) 3.7 18:52:04 10° WNW 18:57:41 76° SSW 19:02:40 13° ESE
Cosmos 1025 Rocket 3.9 18:55:45 10° NNE 18:59:31 27° ENE 19:03:16 10° SE
Cosmos 2227 Rocket 3.8 18:59:26 10° SE 19:01:12 14° ESE 19:01:12 14° ESE
Spot 2 Rocket 3.9 18:59:11 10° SE 19:03:51 40° ENE 19:08:34 10° N
USA 229 DEB 4.4 19:00:59 10° NNW 19:07:29 36° NE 19:12:08 18° ESE
USA 229 4.4 19:01:05 10° NNW 19:07:36 36° NE 19:12:11 18° ESE
Cosmos 1602 4.5 19:08:39 10° SSW 19:12:26 56° W 19:16:18 10° N
Cosmos 2208 Rocket 4.2 19:08:26 10° N 19:13:44 51° ENE 19:18:57 10° SE
Okean 1-7 Rocket 3.6 19:09:45 10° N 19:14:12 55° E 19:18:34 10° SSE
Meteor 1-11 Rocket 3.9 19:09:21 10° S 19:15:08 81° W 19:21:05 10° N
Cosmos 1850 Rocket 4.0 19:11:27 10° SSW 19:16:44 88° ESE 19:22:06 10° NNE
HJ-1C 3.3 19:17:37 10° SSE 19:20:59 85° ENE 19:24:21 10° N
Cosmos 1340 4.3 19:22:05 10° NNW 19:25:34 36° W 19:29:03 10° SSW
Cosmos 1238 Rocket 3.6 19:23:03 10° NNW 19:25:50 38° W 19:28:40 10° SSW
Cosmos 2333 Rocket 3.0 19:29:31 10° N 19:34:33 30° ENE 19:35:00 30° ENE
SAR-Lupe-4 3.9 19:35:07 45° NE 19:35:07 45° NE 19:38:04 10° N
SL-19 R/B 4.3 19:31:02 10° SSE 19:36:40 88° ENE 19:42:42 10° NNW
Genesis I 3.4 19:44:06 10° NW 19:48:01 68° WSW 19:49:02 45° S
FENGYUN 3A 4.2 19:43:06 10° S 19:48:26 58° W 19:53:47 10° NNW
Resurs 01 Rocket 2.0 19:44:31 10° S 19:48:53 63° W 19:53:16 10° NNW
Helios 1A 2.9 19:50:39 66° NE 19:50:39 66° NE 19:54:36 10° N
Cosmos 1610 Rocket 4.3 19:51:24 10° S 19:57:38 84° E 20:03:49 10° N
Hubble Space Telescope 2.7 19:55:23 10° SW 19:57:31 19° S 19:57:31 19° S
GPS 2-04 Rocket1 3.0 19:54:44 10° WSW 19:58:47 66° SSW 19:58:47 66° SSW
Helios 1B rocket 2.4 19:56:54 10° N 20:01:04 81° WNW 20:05:11 10° SSW
GEOS 3 Rocket 4.4 19:56:42 10° NNE 20:01:45 51° NW 20:06:50 10° SW
Okean 2 3.4 19:57:42 10° N 20:01:43 79° NW 20:01:43 79° NW
Resurs 1-3 4.4 19:59:53 10° S 20:04:08 50° W 20:08:25 10° NNW
Spot 1 4.1 20:06:59 68° WNW 20:06:59 68° WNW 20:10:48 10° NNW
CZ-2D R/B 4.1 20:09:07 47° WSW 20:09:25 48° W 20:13:07 10° NNW
Cosmos 405 Rocket 4.3 20:07:23 10° N 20:09:28 29° NNW 20:09:28 29° NNW
ALOS 4.3 20:08:13 10° SSW 20:12:10 27° W 20:16:09 10° NW
H-2A R/B 4.5 20:09:48 13° SSW 20:12:38 31° W 20:15:59 10° NNW
OTV 4 3.8 20:13:12 10° SW 20:13:15 10° SW 20:13:15 10° SW
BREEZE-M DEB (TANK) 3.1 20:16:28 10° WNW 20:19:43 77° SW 20:19:58 75° S
COSMOS 2428 3.7 20:18:52 10° NW 20:24:16 45° WSW 20:27:30 22° SSW
Atlas Centaur 2 4.1 20:20:40 10° SSW 20:23:41 19° S 20:23:41 19° S
Cosmos 2297 Rocket 4.3 20:20:05 10° S 20:20:42 13° S 20:20:42 13° S
Cosmos 2237 Rocket 3.0 20:20:03 10° NNW 20:23:52 40° N 20:23:52 40° N
Cosmos 2219 Rocket 2.6 20:35:16 10° NNW 20:40:18 58° W 20:40:18 58° W
Cosmos 2227 Rocket 3.4 20:40:08 10° SSW 20:43:12 33° SW 20:43:12 33° SW
Nadezhda 3 Rocket 4.3 20:42:25 10° NNW 20:48:28 60° W 20:48:47 59° WSW
USA 229 DEB 4.5 20:51:48 10° NW 20:58:36 48° WSW 20:59:39 45° SW
USA 229 4.5 20:51:53 10° NW 20:58:42 48° WSW 20:59:41 45° SW
SL-16 R/B 4.3 20:54:31 10° N 20:55:51 17° N 20:55:51 17° N
NOSS 3-1 (A) 4.5 21:03:56 10° NNW 21:09:35 53° N 21:09:35 53° N
Cosmos 2333 Rocket 3.9 21:13:37 10° NW 21:17:03 29° WNW 21:17:03 29° WNW
